sat.trackr.live / text

‹ back to catalog

UNKNOWN

NORAD 82381

UNKNOWN UNKNOWN UNKNOWN

§ Identity

Operator
Country
Launch date
Launch site
Launch vehicle
Mass (kg)
RCS (m²)

External: N2YO · Heavens-Above

§ Orbital elements

Epoch: 2026-09-17T12:25:56.497728Z

Period
96.40 min
Inclination
98.3721°
Eccentricity
0.0007416
Mean motion
14.93772913 rev/d
Perigee alt
581.0 km
Apogee alt
591.3 km
Semi-major
6,964.3 km
B*
1.7836e-3
RAAN
146.1684°
Arg perigee
341.2124°
Mean anomaly
18.8819°
Rev number
55,226

§ Raw data

UNKNOWN1 82381U          26260.51801502  .00018893  00000+0  17836-2 0  99952 82381  98.3721 146.1684 0007416 341.2124  18.8819 14.93772913552260

JSON: /api/v1/satellites/82381 · /tle

For live sub-satellite position, see the globe view (requires WebGL).

§ Visibility from observer

Set your observer location to see the next 7 days of passes ≥ 10°. The values pass through the URL so the page stays shareable.

No JS? Fill the form by hand. The geolocation button needs JavaScript.